Tracking 17844 objects as of 26-August-2016
HD Live streaming from Space Station
objects crossing your sky now

NAVSTAR 19 (USA 54)

Track NAVSTAR 19 (USA 54) now!
NAVSTAR 19 (USA 54) is classified as:


NORAD ID: 20533
Int'l Code: 1990-025A
Perigee: 20,958.2 km
Apogee: 21,179.3 km
Inclination: 55.5 °
Period: 753.9 minutes
Semi major axis: 27439 km
RCS: 0.6015 m2 (medium)
Launch date: March 26, 1990
Source: United States (US)
Launch site: AIR FORCE EASTERN TEST RANGE (AFETR)
PRN:
Your satellite tracking list
Your tracking list is empty





NASA's NSSDC Master Catalog

Two Line Element Set (TLE):
1 20533U 90025A   16238.30342407 -.00000069  00000-0  00000+0 0  9997
2 20533  55.5489  16.4901 0040282 150.5468 188.9452  1.91038393186635
Source of the keplerian elements: AFSPC

N2YO: 683